Hutchinson, KS

10:47 AM CST on January 16, 2017 (GMT -0600)
Hutchinson Municipal

Weather History for KHUT - May, 2013

Change the Weather History Date:

Wednesday, May 22, 2013

  Actual Average Record
Temperature  
Mean Temperature 64 °F -  
Max Temperature 78 °F 78 °F 93 °F (2000)
Min Temperature 51 °F 51 °F 39 °F (2001)
Degree Days  
Heating Degree Days 1    
Growing Degree Days 14 (Base 50)    
Moisture  
Dew Point 49 °F    
Average Humidity 62    
Maximum Humidity 83    
Minimum Humidity 37    
Precipitation  
Precipitation 0.00 in - - ()
Sea Level Pressure  
Sea Level Pressure 29.86 in    
Wind  
Wind Speed 8 mph (NNW)    
Max Wind Speed 15 mph    
Max Gust Speed 20 mph    
Visibility 10 miles    
Events      
Averages and records for this station are not official NWS values.
T = Trace of Precipitation, MM = Missing Value Source: NWS Daily Summary

Daily Weather History Graph

Daily Weather History Graph

Search for Another Location

Airport or City:

Trip Planner

Search our weather history database for the weather conditions in past years. The results will help you decide how hot, cold, wet, or windy it might be!

Date:

Astronomy

May. 22, 2013 Rise Set
Actual Time 6:15 AM CDT 8:41 PM CDT
Civil Twilight 5:45 AM CDT 9:11 PM CDT
Nautical Twilight 5:07 AM CDT 9:48 PM CDT
Astronomical Twilight 4:26 AM CDT 10:30 PM CDT
Moon 6:07 PM CDT (5/22) 4:17 AM CDT (5/22)
Length of Visible Light 15h 26m
Length of Day
14h 25m
Waxing Gibbous, 91% of the Moon is Illuminated
May 22
Waxing Gibbous
May 24
Full
May 31
Last Quarter
Jun 8
New
Jun 16
First Quarter

Hourly Weather History & Observations

Time (CDT) Temp. Dew Point Humidity Pressure Visibility Wind Dir Wind Speed Gust Speed Precip Events Conditions
12:52 AM 54.0 °F 46.0 °F 75% 29.81 in 10.0 mi NNW 5.8 mph - N/A   Clear
1:52 AM 52.0 °F 46.0 °F 80% 29.81 in 10.0 mi NW 5.8 mph - N/A   Clear
2:52 AM 52.0 °F 46.0 °F 80% 29.81 in 10.0 mi NW 8.1 mph - N/A   Clear
3:52 AM 51.1 °F 46.0 °F 83% 29.82 in 10.0 mi WNW 4.6 mph - N/A   Clear
4:52 AM 53.1 °F 46.0 °F 77% 29.83 in 10.0 mi NNW 8.1 mph - N/A   Clear
5:52 AM 52.0 °F 45.0 °F 77% 29.83 in 10.0 mi North 9.2 mph - N/A   Clear
6:52 AM 52.0 °F 45.0 °F 77% 29.85 in 10.0 mi NW 6.9 mph - N/A   Clear
7:52 AM 55.0 °F 46.9 °F 74% 29.86 in 10.0 mi WNW 6.9 mph - N/A   Clear
8:52 AM 57.9 °F 48.0 °F 70% 29.87 in 10.0 mi NNW 10.4 mph - N/A   Clear
9:02 AM 59.0 °F 48.2 °F 67% 29.91 in 10.0 mi North 11.5 mph - N/A   Partly Cloudy
9:52 AM 61.0 °F 46.9 °F 60% 29.88 in 10.0 mi WNW 11.5 mph 19.6 mph N/A   Clear
10:52 AM 63.0 °F 46.9 °F 56% 29.89 in 10.0 mi NW 11.5 mph - N/A   Clear
11:52 AM 66.0 °F 48.0 °F 52% 29.90 in 10.0 mi West 15.0 mph - N/A   Clear
12:52 PM 70.0 °F 50.0 °F 49% 29.89 in 10.0 mi NW 10.4 mph - N/A   Clear
1:52 PM 72.0 °F 50.0 °F 46% 29.88 in 10.0 mi WNW 8.1 mph 17.3 mph N/A   Clear
2:52 PM 73.9 °F 50.0 °F 43% 29.86 in 10.0 mi NNW 10.4 mph 19.6 mph N/A   Clear
3:52 PM 75.0 °F 48.9 °F 40% 29.84 in 10.0 mi NW 9.2 mph - N/A   Clear
4:52 PM 75.9 °F 48.9 °F 38% 29.83 in 10.0 mi West 9.2 mph - N/A   Clear
5:52 PM 77.0 °F 48.9 °F 37% 29.83 in 10.0 mi NW 5.8 mph - N/A   Clear
6:52 PM 77.0 °F 50.0 °F 39% 29.84 in 10.0 mi North 5.8 mph - N/A   Clear
7:52 PM 73.0 °F 52.0 °F 48% 29.86 in 10.0 mi NE 4.6 mph - N/A   Clear
8:52 PM 66.9 °F 53.1 °F 61% 29.88 in 10.0 mi ENE 3.5 mph - N/A   Clear
9:52 PM 62.1 °F 53.1 °F 72% 29.90 in 10.0 mi East 4.6 mph - N/A   Clear
10:52 PM 61.0 °F 53.1 °F 75% 29.92 in 10.0 mi East 6.9 mph - N/A   Clear
11:52 PM 60.1 °F 52.0 °F 75% 29.93 in 10.0 mi East 4.6 mph - N/A   Clear